Weather History for Hagerstown, MD

Change the Weather History Date:

Saturday, March 29, 2014

  Actual Average Record
Temperature  
Mean Temperature 51 °F -  
Max Temperature 56 °F 55 °F 82 °F (1998)
Min Temperature 46 °F 37 °F 27 °F (2011)
Degree Days  
Heating Degree Days 14    
Month to date heating degree days 820  
Moisture  
Dew Point 44 °F    
Average Humidity 80    
Maximum Humidity 89    
Minimum Humidity 71    
Precipitation  
Precipitation 0.05 in - - ()
Month to date precipitation 0.83  
Year to date precipitation 4.61  
Sea Level Pressure  
Sea Level Pressure 29.91 in    
Wind  
Wind Speed 8 mph (NNE)    
Max Wind Speed 18 mph    
Max Gust Speed 22 mph    
Visibility 6 miles    
Events Rain    
Averages and records for this station are not official NWS values.
T = Trace of Precipitation, MM = Missing Value Source: NWS Daily Summary

Daily Weather History Graph

Daily Weather History Graph

Search for Another Location

Airport:

Trip Planner

Search our weather history database for the weather conditions in past years. The results will help you decide how hot, cold, wet, or windy it might be!

Date:

Astronomy

Mar. 29, 2014 Rise Set
Actual Time 6:59 AM EDT 7:32 PM EDT
Civil Twilight 6:32 AM EDT 7:59 PM EDT
Nautical Twilight 6:00 AM EDT 8:31 PM EDT
Astronomical Twilight 5:28 AM EDT 9:03 PM EDT
Moon 6:07 AM EDT (3/29) 6:35 PM EDT (3/29)
Length of Visible Light 13h 26m
Length of Day
12h 32m
Waning Crescent, 2% of the Moon is Illuminated
Mar 29
Waning Crescent
Mar 30
New
Apr 7
First Quarter
Apr 15
Full
Apr 22
Last Quarter

Hourly Weather History & Observations

Time (EDT) Temp. Windchill Dew Point Humidity Pressure Visibility Wind Dir Wind Speed Gust Speed Precip Events Conditions
12:53 AM 52.0 °F - 48.0 °F 86% 30.12 in 10.0 mi Calm Calm - N/A   Clear
1:53 AM 52.0 °F - 44.1 °F 74% 30.13 in 10.0 mi North 8.1 mph - N/A   Clear
2:53 AM 50.0 °F - 42.1 °F 74% 30.11 in 10.0 mi North 8.1 mph - N/A   Clear
3:53 AM 48.9 °F - 39.9 °F 71% 30.09 in 10.0 mi North 10.4 mph - N/A   Clear
4:53 AM 48.0 °F - 39.9 °F 74% 30.08 in 10.0 mi North 9.2 mph - N/A   Partly Cloudy
5:53 AM 46.0 °F 41.9 °F 39.9 °F 79% 30.10 in 10.0 mi NNW 8.1 mph - N/A   Clear
6:53 AM 46.0 °F 42.5 °F 39.9 °F 79% 30.10 in 10.0 mi NNW 6.9 mph - N/A   Clear
7:35 AM 46.9 °F - 39.9 °F 77% 30.07 in 10.0 mi North 9.2 mph - N/A   Overcast
7:53 AM 46.9 °F - 39.9 °F 77% 30.11 in 10.0 mi North 10.4 mph - N/A   Overcast
8:53 AM 48.0 °F - 39.9 °F 74% 30.09 in 10.0 mi North 6.9 mph - N/A   Overcast
9:53 AM 48.9 °F - 39.9 °F 71% 30.07 in 10.0 mi NNE 9.2 mph - N/A   Overcast
10:53 AM 51.1 °F - 43.0 °F 74% 30.06 in 10.0 mi NNE 5.8 mph - N/A   Overcast
11:36 AM 50.0 °F - 45.0 °F 83% 30.02 in 2.5 mi NE 10.4 mph - 0.00 in Rain Light Rain
11:50 AM 48.2 °F - 46.4 °F 93% 30.01 in 1.5 mi NE 8.1 mph - 0.01 in Rain Light Rain
11:53 AM 48.9 °F - 46.0 °F 90% 30.05 in 1.5 mi NE 10.4 mph - 0.01 in Rain Light Rain
12:23 PM 48.9 °F - 46.0 °F 90% 29.99 in 2.5 mi NE 10.4 mph - 0.01 in Rain Light Rain
12:30 PM 48.9 °F - 46.9 °F 93% 29.98 in 1.8 mi NNE 8.1 mph - 0.01 in   Overcast
12:53 PM 48.9 °F - 46.9 °F 93% 30.00 in 1.8 mi ENE 9.2 mph - 0.01 in Rain Light Rain
1:10 PM 48.9 °F - 46.9 °F 93% 29.95 in 1.8 mi NE 9.2 mph - 0.01 in Rain Light Rain
1:15 PM 48.9 °F - 46.9 °F 93% 29.95 in 3.0 mi NE 10.4 mph - 0.01 in Rain Light Rain
1:23 PM 48.9 °F - 46.9 °F 93% 29.94 in 4.0 mi NNE 10.4 mph - 0.01 in   Overcast
1:49 PM 48.2 °F - 46.4 °F 93% 29.93 in 5.0 mi North 8.1 mph 20.7 mph 0.01 in Rain Light Rain
1:53 PM 48.9 °F - 46.9 °F 93% 29.96 in 5.0 mi North 8.1 mph - 0.01 in   Overcast
2:01 PM 48.9 °F - 46.9 °F 93% 29.92 in 3.0 mi North 8.1 mph - N/A   Overcast
2:53 PM 48.9 °F - 45.0 °F 86% 29.90 in 10.0 mi ENE 16.1 mph - N/A   Overcast
3:12 PM 48.9 °F - 45.0 °F 86% 29.86 in 7.0 mi ENE 13.8 mph - N/A   Overcast
3:53 PM 48.0 °F - 44.1 °F 86% 29.87 in 7.0 mi NE 12.7 mph - 0.00 in Rain Light Rain
4:53 PM 48.0 °F - 45.0 °F 89% 29.82 in 7.0 mi NE 10.4 mph - 0.02 in   Overcast
5:53 PM 48.0 °F - 45.0 °F 89% 29.77 in 3.0 mi North 9.2 mph - 0.00 in Rain Light Rain
6:00 PM 46.9 °F - 45.0 °F 93% 29.73 in 3.0 mi NNE 10.4 mph - 0.01 in Rain Light Rain
6:17 PM 46.9 °F - 45.0 °F 93% 29.72 in 4.0 mi North 9.2 mph - 0.01 in Rain Light Rain
6:53 PM 48.0 °F - 45.0 °F 89% 29.73 in 5.0 mi North 9.2 mph - 0.01 in   Overcast
7:00 PM 48.0 °F - 46.0 °F 93% 29.69 in 3.0 mi NNE 9.2 mph - 0.00 in Rain Light Rain
7:33 PM 48.0 °F - 46.0 °F 93% 29.67 in 2.0 mi NE 10.4 mph - 0.02 in Rain Light Rain
7:53 PM 46.9 °F - 46.0 °F 97% 29.71 in 2.0 mi NNW 8.1 mph - 0.05 in Rain Light Rain
7:56 PM 46.9 °F - 45.0 °F 93% 29.67 in 4.0 mi NNW 8.1 mph - 0.00 in Rain Light Rain
8:21 PM 46.0 °F 40.2 °F 44.1 °F 93% 29.67 in 2.5 mi NNW 12.7 mph - 0.04 in Rain Rain
8:28 PM 45.0 °F 39.3 °F 44.1 °F 97% 29.67 in 3.0 mi NNW 11.5 mph - 0.06 in Rain Rain
8:41 PM 45.0 °F 39.3 °F 44.1 °F 97% 29.66 in 2.5 mi North 11.5 mph - 0.13 in Rain Rain
8:53 PM 45.0 °F 37.9 °F 44.1 °F 97% 29.68 in 3.0 mi North 16.1 mph - 0.18 in Rain Rain
9:07 PM 45.0 °F 38.2 °F 44.1 °F 97% 29.64 in 4.0 mi North 15.0 mph - 0.07 in Rain Rain